TimeCST,TemperatureF,Dew PointF,Humidity,Sea Level PressureIn,VisibilityMPH,Wind Direction,Wind SpeedMPH,Gust SpeedMPH,PrecipitationIn,Events,Conditions,WindDirDegrees,DateUTC
12:51 AM,10.9,3.0,70,30.20,10.0,Calm,Calm,-,N/A,,Clear,0,2013-02-17 06:51:00
1:51 AM,10.9,1.9,67,30.19,10.0,NW,5.8,-,N/A,,Clear,310,2013-02-17 07:51:00
2:51 AM,10.9,1.9,67,30.19,10.0,NW,4.6,-,N/A,,Clear,310,2013-02-17 08:51:00
3:51 AM,10.9,1.0,64,30.19,10.0,NNW,5.8,-,N/A,,Clear,330,2013-02-17 09:51:00
4:51 AM,10.9,-0.0,61,30.20,10.0,NW,4.6,-,N/A,,Clear,320,2013-02-17 10:51:00
5:51 AM,10.0,1.0,67,30.22,10.0,West,4.6,-,N/A,,Clear,270,2013-02-17 11:51:00
6:51 AM,10.0,1.9,70,30.23,10.0,Calm,Calm,-,N/A,,Partly Cloudy,0,2013-02-17 12:51:00
7:51 AM,14.0,1.9,59,30.23,10.0,Calm,Calm,-,N/A,,Partly Cloudy,0,2013-02-17 13:51:00
8:51 AM,16.0,-0.0,49,30.23,10.0,Calm,Calm,-,N/A,,Scattered Clouds,0,2013-02-17 14:51:00
9:51 AM,18.0,-0.9,44,30.23,10.0,WSW,3.5,-,0.00,,Scattered Clouds,250,2013-02-17 15:51:00
10:51 AM,21.0,-0.9,38,30.22,10.0,Variable,3.5,-,N/A,,Scattered Clouds,0,2013-02-17 16:51:00
11:51 AM,21.9,1.0,40,30.22,10.0,South,4.6,-,N/A,,Scattered Clouds,190,2013-02-17 17:51:00
12:51 PM,25.0,1.0,36,30.19,10.0,SW,3.5,-,N/A,,Scattered Clouds,230,2013-02-17 18:51:00
1:51 PM,27.0,1.9,34,30.17,10.0,SW,3.5,-,N/A,,Scattered Clouds,220,2013-02-17 19:51:00
2:51 PM,28.9,1.0,30,30.14,10.0,South,4.6,-,N/A,,Partly Cloudy,190,2013-02-17 20:51:00
3:51 PM,28.9,1.0,30,30.12,10.0,South,5.8,-,N/A,,Scattered Clouds,180,2013-02-17 21:51:00
4:51 PM,28.9,5.0,36,30.11,10.0,South,9.2,-,N/A,,Mostly Cloudy,170,2013-02-17 22:51:00
5:51 PM,27.0,9.0,47,30.11,10.0,South,9.2,-,N/A,,Scattered Clouds,180,2013-02-17 23:51:00
6:51 PM,25.0,10.0,53,30.10,10.0,South,9.2,-,N/A,,Scattered Clouds,170,2013-02-18 00:51:00
7:51 PM,27.0,10.0,49,30.09,10.0,SSE,10.4,-,N/A,,Mostly Cloudy,160,2013-02-18 01:51:00
8:51 PM,27.0,10.0,49,30.07,10.0,SSE,11.5,-,N/A,,Overcast,160,2013-02-18 02:51:00
9:51 PM,27.0,12.0,53,30.07,10.0,SSE,10.4,-,N/A,,Mostly Cloudy,160,2013-02-18 03:51:00
11:51 PM,27.0,14.0,58,30.02,10.0,SSE,10.4,-,N/A,,Mostly Cloudy,150,2013-02-18 05:51:00